Hlavní strana
METAR-TAF:

METAR-TAF

Letiště :

Pryor Field Regional Airport

Decatur, Alabama, Spojené státy americké

zeměpisná šířka: 34-39-29N, zeměpisná délka: 086-56-36W, výška: 180 m

Aktuální stav počasí

Zpráva byla vytvořena před 35 minutami, v 01:53 UTC
Severoseverovýchodní vítr 6 kt
Teplota 13°C
Vlhkost vzduchu 62%
Tlak 1028 hPa
Viditelnost: 16.1 km
Jasno

METAR: KDCU 190153Z AUTO 03006KT 10SM CLR 13/06 A3035 RMK AO2 SLP277 T01280061

Čas: 21:28 (02:28 UTC)


TAF: chybějící

Stav a předpovědi počasí z více než 4 000 letišť (zprávy METAR a TAF).

Červené a žluté tečky na mapě představují dostupné meteorologické stanice.

Když kurzor umístíte na tečku, zobrazí se název stanice.

Pak kliknutím zobrazíte stav a předpověď počasí.

Chcete-li změnit mapu, kliknutím na zelené tlačítko se znaménkem +mapu přiblížíte, kliknutím na zelené tlačítko se znaménkem – mapu oddálíte a kliknutím na zelené šipky přejdete na sousední mapy.


METAR-TAF: